Tracking 19636 objects as of 24-May-2019
HD Live streaming from Space Station
objects crossing your sky now

SL-3 R/B

Track SL-3 R/B now!
10-day predictions
SL-3 R/B is classified as:


NORAD ID: 12465
Int'l Code: 1981-046B
Perigee: 505.6 km
Apogee: 554.2 km
Inclination: 81.2 °
Period: 95.1 minutes
Semi major axis: 6900 km
RCS: 5.7192 m2 (large)
Launch date: May 19, 1981
Source: Commonwealth of Independent States (former USSR) (CIS)
Launch site: PLESETSK MISSILE AND SPACE COMPLEX (PKMTR)

Note: This is a ROCKET BODY
aabbcc
Your satellite tracking list
Your tracking list is empty




NASA's NSSDC Master Catalog

Two Line Element Set (TLE):
1 12465U 81046B   19143.14646790  .00000228  00000-0  10764-4 0  9996
2 12465  81.2420 294.2377 0035196 123.6594 236.8000 15.14415274 74133
Source of the keplerian elements: AFSPC